Location: Pontbriand
(46.1542°N, 71.2542°W)
Time: 12:18:39
(UTC+00:00)

Envisat - Pass Details

Date: 04 December 2021
Orbit: 764 x 766 km, 98.2° (Epoch: 20 January)

Event Time Altitude Azimuth Distance (km) Brightness Sun altitude
Rises 10:31:30 0° 7° (N) 3,245 6.2 -16.5°
Reaches altitude 10° 10:33:54 10° 1° (N) 2,314 5.3 -16.1°
Maximum altitude 10:38:42 43° 291° (WNW) 1,072 3.3 -15.3°
Drops below altitude 10° 10:43:27 10° 221° (SW) 2,297 5.2 -14.5°
Sets 10:45:50 0° 215° (SW) 3,219 6.1 -14.1°
